星链-6330 (STARLINK-6330 )

导读

STARLINK-6330是美国太空探索技术公司(SpaceX)星链互联网星座中的一颗卫星,于2023年7月7日发射入轨。星链计划旨在通过近地轨道卫星群搭建全球卫星互联网,为全球提供高速低延迟网络覆盖,该卫星的成功发射进一步扩充了星链星座的在轨卫星规模。

Basic Information
目录编号:
57239
目录名称:
STARLINK-6330
国际标识:
2023-094X
轨道中心:
EARTH
卫星名称:
星链-6330
卫星全名:
星链-6330 (STARLINK-6330 )
卫星状态:
在轨 (已飞行1155 天)
发射日期:
2023-07-07 UTC
国别 :
美国 (US)
星等 :
--
Orbit Information
数据来源 国际轨道数据 AOE轨道数据
星历时间 2026-09-03T09:12:32+0800
1天前
查看轨道信息
2026-09-03T12:00:00+0800
1天前
查看轨道信息
半长轴 6861.059km 6861.097km
偏心率 0.0001322 0.0001392
轨道倾角 43.002° 43.006°
近地点辐角 252.409° 242.270°
升交点赤经 108.804° 108.151°
平近点角 107.662° 37.947°
近地点 482.014km 482.004km
远地点 483.83km 483.916km
周期 94.264分钟 94.265分钟
每日圈数 15.276225 15.276098
Detailed Information
固有亮度:
5
最大亮度:
2.4
卫星平台:
Starlink v1.5
覆盖范围:
全球
运营商:
太空探索技术公司
运营商所在国:
美国
制造商(研发单位):
太空探索技术公司
制造商所在国:
美国
使用方式:
暂无
Satellite Introduction
星链(Starlink)计划是由太空探索技术公司(SpaceX)提出的一个巨型低轨卫星互联网星座项目,计划在2019年至2024年间在太空搭建由约1.2万颗卫星组成的“星链”网络,其中1584颗将部署在地球上空550千米处的近地轨道,并从2020年开始工作。该卫星仍在工作。
2D Orbit Map
3D Orbit Map
Orbit Altitude Analysis Chart
Orbit Inclination Analysis Chart
Orbit Comprehensive Analysis Chart
View Comprehensive Chart
Conjunction Data List
Event ID Objects TCA Miss Dist (km) Collision Risk Probability Collision Risk Index (CRI) Action
CDM_260905-053905-723905-859421
2026-09-05T
05:39:22+0000
0.071 km
近距离
1.289144E-3 极高风险 0.97
CDM_260904-121405-723905-851221
2026-09-04T
12:14:53+0000
0.116 km
中距离
9.512621E-4 高风险 0.95
CDM_260904-125305-723905-751521
2026-09-04T
12:53:05+0000
0.205 km
中距离
3.553136E-4 高风险 0.86
CDM_260905-091005-723906-749821
2026-09-05T
09:10:41+0000
0.441 km
远距离
1.676649E-4 高风险 0.79
CDM_260905-073605-723906-749821
2026-09-05T
07:36:32+0000
0.482 km
远距离
1.36277E-4 高风险 0.78
CDM_260904-130405-723905-988622
2026-09-04T
13:04:35+0000
0.522 km
远距离
1.245779E-4 高风险 0.77
CDM_260904-164805-723905-751521
2026-09-04T
16:48:28+0000
0.505 km
远距离
5.084175E-5 中风险 0.69
CDM_260905-030905-723905-851221
2026-09-05T
03:09:20+0000
0.896 km
远距离
2.143036E-5 中风险 0.62
CDM_260905-013505-723905-851221
2026-09-05T
01:35:11+0000
1.149 km
极远距离
9.101425E-6 低风险 0.54
CDM_260905-040505-723905-859421
2026-09-05T
04:05:13+0000
1.392 km
极远距离
6.450678E-6 低风险 0.51